Time,TemperatureF,DewpointF,PressureIn,WindDirection,WindDirectionDegrees,WindSpeedMPH,WindSpeedGustMPH,Humidity,HourlyPrecipIn,Conditions,Clouds,dailyrainin,SoftwareType,DateUTC
2013-02-12 00:01:00,46.0,29.0,29.82,WNW,292,6.0,12.0,51,0.00,,,0.16,,2013-02-12 05:01:00,
2013-02-12 00:11:00,46.0,28.0,29.82,West,277,10.0,14.0,50,0.00,,,0.16,,2013-02-12 05:11:00,
2013-02-12 00:21:00,46.0,28.0,29.82,West,277,10.0,14.0,50,0.00,,,0.16,,2013-02-12 05:21:00,
2013-02-12 00:32:00,46.0,29.0,29.82,WNW,292,7.0,10.0,51,0.00,,,0.16,,2013-02-12 05:32:00,
2013-02-12 00:42:00,46.0,29.0,29.82,WNW,292,7.0,10.0,51,0.00,,,0.16,,2013-02-12 05:42:00,
2013-02-12 00:52:00,46.0,29.0,29.82,WNW,284,8.0,17.0,52,0.00,,,0.16,,2013-02-12 05:52:00,
2013-02-12 01:02:00,47.0,29.0,29.83,WNW,288,5.0,13.0,50,0.00,,,0.16,,2013-02-12 06:02:00,
2013-02-12 01:12:00,46.0,29.0,29.83,NW,311,4.0,7.0,51,0.00,,,0.16,,2013-02-12 06:12:00,
2013-02-12 01:22:00,46.0,29.0,29.83,NW,311,4.0,7.0,51,0.00,,,0.16,,2013-02-12 06:22:00,
2013-02-12 01:32:00,46.0,28.0,29.83,WNW,283,10.0,17.0,49,0.00,,,0.16,,2013-02-12 06:32:00,
2013-02-12 01:42:00,46.0,27.0,29.83,WNW,296,12.0,18.0,48,0.00,,,0.16,,2013-02-12 06:42:00,
2013-02-12 01:52:00,46.0,27.0,29.83,WNW,296,12.0,18.0,48,0.00,,,0.16,,2013-02-12 06:52:00,
2013-02-12 02:01:00,46.0,27.0,29.83,WNW,286,10.0,15.0,48,0.00,,,0.16,,2013-02-12 07:01:00,
2013-02-12 02:11:00,46.0,27.0,29.83,WNW,286,10.0,15.0,48,0.00,,,0.16,,2013-02-12 07:11:00,
2013-02-12 02:21:00,46.0,27.0,29.84,West,272,7.0,11.0,48,0.00,,,0.15,,2013-02-12 07:21:00,
2013-02-12 02:32:00,45.0,27.0,29.85,NW,313,5.0,10.0,49,0.00,,,0.15,,2013-02-12 07:32:00,
2013-02-12 02:42:00,45.0,27.0,29.85,NW,313,5.0,10.0,49,0.00,,,0.15,,2013-02-12 07:42:00,
2013-02-12 02:52:00,45.0,27.0,29.85,West,281,8.0,16.0,48,0.00,,,0.15,,2013-02-12 07:52:00,
2013-02-12 03:01:00,45.0,27.0,29.85,West,273,10.0,14.0,48,0.00,,,0.15,,2013-02-12 08:01:00,
2013-02-12 03:11:00,45.0,27.0,29.85,West,273,10.0,14.0,48,0.00,,,0.15,,2013-02-12 08:11:00,
2013-02-12 03:21:00,45.0,25.0,29.85,NW,309,15.0,19.0,46,0.00,,,0.10,,2013-02-12 08:21:00,
2013-02-12 03:32:00,45.0,25.0,29.85,NW,314,9.0,16.0,46,0.00,,,0.10,,2013-02-12 08:32:00,
2013-02-12 03:42:00,45.0,25.0,29.85,NW,314,9.0,16.0,46,0.00,,,0.10,,2013-02-12 08:42:00,
2013-02-12 03:52:00,45.0,25.0,29.85,WNW,286,13.0,18.0,46,0.00,,,0.10,,2013-02-12 08:52:00,
2013-02-12 04:02:00,45.0,25.0,29.85,WNW,285,9.0,17.0,45,0.00,,,0.10,,2013-02-12 09:02:00,
2013-02-12 04:11:00,45.0,25.0,29.85,WNW,285,9.0,17.0,45,0.00,,,0.10,,2013-02-12 09:11:00,
2013-02-12 04:21:00,45.0,25.0,29.85,WNW,298,7.0,13.0,46,0.00,,,0.04,,2013-02-12 09:21:00,
2013-02-12 04:32:00,45.0,25.0,29.86,WNW,295,11.0,16.0,46,0.00,,,0.04,,2013-02-12 09:32:00,
2013-02-12 04:42:00,45.0,25.0,29.86,WNW,300,11.0,14.0,45,0.00,,,0.04,,2013-02-12 09:42:00,
2013-02-12 04:52:00,45.0,25.0,29.86,WNW,300,11.0,14.0,45,0.00,,,0.04,,2013-02-12 09:52:00,
2013-02-12 05:01:00,44.0,25.0,29.86,WNW,290,8.0,15.0,47,0.00,,,0.04,,2013-02-12 10:01:00,
2013-02-12 05:11:00,44.0,25.0,29.86,NW,310,6.0,13.0,47,0.00,,,0.01,,2013-02-12 10:11:00,
2013-02-12 05:21:00,44.0,25.0,29.86,NW,310,6.0,13.0,47,0.00,,,0.01,,2013-02-12 10:21:00,
2013-02-12 05:32:00,44.0,25.0,29.87,NW,314,10.0,15.0,47,0.00,,,0.01,,2013-02-12 10:32:00,
2013-02-12 05:43:00,44.0,25.0,29.87,NW,314,10.0,15.0,47,0.00,,,0.01,,2013-02-12 10:43:00,
2013-02-12 05:52:00,44.0,25.0,29.87,NW,308,14.0,19.0,46,0.00,,,0.01,,2013-02-12 10:52:00,
2013-02-12 06:01:00,44.0,25.0,29.87,WNW,290,11.0,24.0,47,0.00,,,0.01,,2013-02-12 11:01:00,
2013-02-12 06:11:00,44.0,25.0,29.87,WNW,290,11.0,24.0,47,0.00,,,0.01,,2013-02-12 11:11:00,
2013-02-12 06:22:00,44.0,25.0,29.88,WNW,298,10.0,15.0,47,0.00,,,0.01,,2013-02-12 11:22:00,
2013-02-12 06:32:00,44.0,26.0,29.88,WNW,283,8.0,17.0,48,0.00,,,0.01,,2013-02-12 11:32:00,
2013-02-12 06:42:00,44.0,26.0,29.88,WNW,283,8.0,17.0,48,0.00,,,0.01,,2013-02-12 11:42:00,
2013-02-12 06:52:00,44.0,26.0,29.89,NW,306,7.0,15.0,48,0.00,,,0.01,,2013-02-12 11:52:00,
2013-02-12 07:01:00,43.0,25.0,29.90,WNW,284,7.0,12.0,48,0.00,,,0.01,,2013-02-12 12:01:00,
2013-02-12 07:11:00,43.0,25.0,29.90,WNW,284,8.0,13.0,49,0.00,,,0.01,,2013-02-12 12:11:00,
2013-02-12 07:21:00,43.0,25.0,29.90,WNW,284,8.0,13.0,49,0.00,,,0.01,,2013-02-12 12:21:00,
2013-02-12 07:32:00,43.0,25.0,29.91,WNW,300,10.0,15.0,48,0.00,,,0.01,,2013-02-12 12:32:00,
2013-02-12 07:42:00,43.0,25.0,29.91,WNW,300,10.0,15.0,48,0.00,,,0.01,,2013-02-12 12:42:00,
2013-02-12 07:53:00,43.0,25.0,29.91,NW,309,7.0,16.0,49,0.00,,,0.01,,2013-02-12 12:53:00,
2013-02-12 08:01:00,43.0,25.0,29.92,WNW,296,7.0,14.0,49,0.00,,,0.01,,2013-02-12 13:01:00,
2013-02-12 08:11:00,43.0,26.0,29.92,WNW,294,5.0,10.0,50,0.00,,,0.01,,2013-02-12 13:11:00,
2013-02-12 08:22:00,43.0,26.0,29.92,WNW,294,5.0,10.0,50,0.00,,,0.01,,2013-02-12 13:22:00,
2013-02-12 08:32:00,43.0,25.0,29.92,NW,309,4.0,7.0,49,0.00,,,0.01,,2013-02-12 13:32:00,
2013-02-12 08:42:00,43.0,25.0,29.92,NW,309,4.0,7.0,49,0.00,,,0.01,,2013-02-12 13:42:00,
2013-02-12 08:52:00,44.0,26.0,29.93,WNW,284,6.0,8.0,48,0.00,,,0.01,,2013-02-12 13:52:00,
2013-02-12 09:01:00,45.0,26.0,29.93,NW,306,8.0,13.0,47,0.00,,,0.01,,2013-02-12 14:01:00,
2013-02-12 09:12:00,45.0,26.0,29.93,NW,306,8.0,13.0,47,0.00,,,0.01,,2013-02-12 14:12:00,
2013-02-12 09:22:00,45.0,25.0,29.93,West,280,11.0,15.0,46,0.00,,,0.01,,2013-02-12 14:22:00,
2013-02-12 09:32:00,45.0,25.0,29.94,WNW,287,12.0,20.0,46,0.00,,,0.01,,2013-02-12 14:32:00,
2013-02-12 09:42:00,45.0,25.0,29.94,WNW,287,12.0,20.0,46,0.00,,,0.01,,2013-02-12 14:42:00,
2013-02-12 09:52:00,45.0,26.0,29.95,West,281,14.0,21.0,47,0.00,,,0.01,,2013-02-12 14:52:00,
2013-02-12 10:02:00,46.0,26.0,29.95,WNW,294,12.0,20.0,46,0.00,,,0.01,,2013-02-12 15:02:00,
2013-02-12 10:11:00,45.0,25.0,29.96,NW,315,11.0,21.0,46,0.00,,,0.01,,2013-02-12 15:11:00,
2013-02-12 10:21:00,45.0,25.0,29.96,NW,315,11.0,21.0,46,0.00,,,0.01,,2013-02-12 15:21:00,
2013-02-12 10:32:00,45.0,26.0,29.97,NW,309,12.0,22.0,47,0.00,,,0.01,,2013-02-12 15:32:00,
2013-02-12 10:42:00,45.0,26.0,29.97,NW,309,12.0,22.0,47,0.00,,,0.01,,2013-02-12 15:42:00,
2013-02-12 10:52:00,45.0,26.0,29.98,WNW,300,10.0,17.0,47,0.00,,,0.01,,2013-02-12 15:52:00,
2013-02-12 11:01:00,46.0,26.0,29.98,WNW,294,10.0,19.0,45,0.00,,,0.01,,2013-02-12 16:01:00,
2013-02-12 11:11:00,46.0,26.0,29.98,WNW,294,10.0,19.0,45,0.00,,,0.01,,2013-02-12 16:11:00,
2013-02-12 11:22:00,47.0,27.0,29.98,WNW,290,10.0,16.0,45,0.00,,,0.01,,2013-02-12 16:22:00,
2013-02-12 11:32:00,47.0,27.0,29.97,NW,308,12.0,17.0,45,0.00,,,0.01,,2013-02-12 16:32:00,
2013-02-12 11:42:00,47.0,27.0,29.97,NW,308,12.0,17.0,45,0.00,,,0.01,,2013-02-12 16:42:00,
2013-02-12 11:52:00,47.0,26.0,29.97,NW,306,8.0,17.0,44,0.00,,,0.01,,2013-02-12 16:52:00,
2013-02-12 12:01:00,47.0,27.0,29.97,NW,308,9.0,12.0,45,0.00,,,0.01,,2013-02-12 17:01:00,
2013-02-12 12:12:00,47.0,27.0,29.97,North,5,6.0,15.0,46,0.00,,,0.01,,2013-02-12 17:12:00,
2013-02-12 12:21:00,47.0,27.0,29.97,North,5,6.0,15.0,46,0.00,,,0.01,,2013-02-12 17:21:00,
2013-02-12 12:32:00,48.0,28.0,29.97,NW,323,6.0,10.0,45,0.00,,,0.01,,2013-02-12 17:32:00,
2013-02-12 12:42:00,48.0,28.0,29.97,NW,323,6.0,10.0,45,0.00,,,0.01,,2013-02-12 17:42:00,
2013-02-12 12:52:00,48.0,28.0,29.96,North,5,7.0,11.0,45,0.00,,,0.01,,2013-02-12 17:52:00,
2013-02-12 13:01:00,49.0,29.0,29.95,North,350,9.0,12.0,46,0.00,,,0.01,,2013-02-12 18:01:00,
2013-02-12 13:11:00,49.0,29.0,29.94,NNW,342,9.0,13.0,45,0.00,,,0.01,,2013-02-12 18:11:00,
2013-02-12 13:23:00,49.0,29.0,29.94,NNW,342,9.0,13.0,45,0.00,,,0.01,,2013-02-12 18:23:00,
2013-02-12 13:32:00,49.0,29.0,29.93,NNW,331,5.0,12.0,45,0.00,,,0.01,,2013-02-12 18:32:00,
2013-02-12 13:41:00,49.0,29.0,29.93,NNW,331,5.0,12.0,45,0.00,,,0.01,,2013-02-12 18:41:00,
2013-02-12 13:52:00,49.0,29.0,29.92,East,82,4.0,9.0,45,0.00,,,0.01,,2013-02-12 18:52:00,
2013-02-12 14:02:00,50.0,28.0,29.91,North,355,7.0,13.0,42,0.00,,,0.01,,2013-02-12 19:02:00,
2013-02-12 14:11:00,50.0,27.0,29.92,WNW,295,5.0,14.0,41,0.00,,,0.01,,2013-02-12 19:11:00,
2013-02-12 14:21:00,50.0,27.0,29.92,WNW,295,5.0,14.0,41,0.00,,,0.01,,2013-02-12 19:21:00,
2013-02-12 14:31:00,51.0,28.0,29.90,North,360,7.0,13.0,41,0.00,,,0.01,,2013-02-12 19:31:00,
2013-02-12 14:42:00,51.0,28.0,29.87,North,360,7.0,10.0,41,0.00,,,0.01,,2013-02-12 19:42:00,
2013-02-12 14:52:00,51.0,28.0,29.87,North,360,7.0,10.0,41,0.00,,,0.01,,2013-02-12 19:52:00,
2013-02-12 15:01:00,51.0,28.0,29.85,NNE,19,6.0,10.0,40,0.00,,,0.01,,2013-02-12 20:01:00,
2013-02-12 15:11:00,51.0,28.0,29.85,NNE,19,6.0,10.0,40,0.00,,,0.01,,2013-02-12 20:11:00,
2013-02-12 15:21:00,51.0,29.0,29.85,NNW,335,7.0,10.0,42,0.00,,,0.01,,2013-02-12 20:21:00,
2013-02-12 15:32:00,51.0,26.0,29.84,NNW,343,3.0,11.0,38,0.00,,,0.01,,2013-02-12 20:32:00,
2013-02-12 15:41:00,51.0,26.0,29.84,NNW,343,3.0,11.0,38,0.00,,,0.01,,2013-02-12 20:41:00,
2013-02-12 15:52:00,51.0,28.0,29.89,NW,323,3.0,9.0,41,0.00,,,0.01,,2013-02-12 20:52:00,
2013-02-12 16:01:00,52.0,27.0,29.90,NNW,329,5.0,7.0,38,0.00,,,0.01,,2013-02-12 21:01:00,
2013-02-12 16:11:00,52.0,27.0,29.90,NNW,329,5.0,7.0,38,0.00,,,0.01,,2013-02-12 21:11:00,
2013-02-12 16:21:00,52.0,28.0,29.91,West,265,5.0,8.0,39,0.00,,,0.01,,2013-02-12 21:21:00,
2013-02-12 16:31:00,53.0,28.0,29.91,West,262,1.0,5.0,38,0.00,,,0.01,,2013-02-12 21:31:00,
2013-02-12 16:42:00,52.0,27.0,29.91,WNW,292,3.0,7.0,38,0.00,,,0.01,,2013-02-12 21:42:00,
2013-02-12 16:52:00,52.0,27.0,29.91,WNW,292,3.0,7.0,38,0.00,,,0.01,,2013-02-12 21:52:00,
2013-02-12 17:01:00,52.0,28.0,29.91,WNW,298,4.0,5.0,39,0.00,,,0.01,,2013-02-12 22:01:00,
2013-02-12 17:12:00,52.0,28.0,29.91,WNW,298,4.0,5.0,39,0.00,,,0.01,,2013-02-12 22:12:00,
2013-02-12 17:21:00,51.0,28.0,29.91,WNW,300,1.0,4.0,41,0.00,,,0.01,,2013-02-12 22:21:00,
2013-02-12 17:32:00,49.0,27.0,29.91,NW,305,2.0,4.0,43,0.00,,,0.01,,2013-02-12 22:32:00,
2013-02-12 17:42:00,49.0,27.0,29.91,NW,305,2.0,4.0,43,0.00,,,0.01,,2013-02-12 22:42:00,
2013-02-12 17:52:00,48.0,27.0,29.91,NW,325,1.0,3.0,43,0.00,,,0.01,,2013-02-12 22:52:00,
2013-02-12 18:01:00,47.0,27.0,29.92,NW,325,0.0,1.0,45,0.00,,,0.01,,2013-02-12 23:01:00,
2013-02-12 18:11:00,46.0,26.0,29.93,NW,325,0.0,2.0,46,0.00,,,0.00,,2013-02-12 23:11:00,
2013-02-12 18:21:00,46.0,26.0,29.93,NW,325,0.0,2.0,46,0.00,,,0.00,,2013-02-12 23:21:00,
2013-02-12 18:32:00,46.0,26.0,29.93,NNW,331,1.0,3.0,46,0.00,,,0.00,,2013-02-12 23:32:00,
2013-02-12 18:42:00,46.0,26.0,29.93,NNW,331,1.0,3.0,46,0.00,,,0.00,,2013-02-12 23:42:00,
2013-02-12 18:52:00,46.0,26.0,29.94,NNW,336,0.0,2.0,45,0.00,,,0.00,,2013-02-12 23:52:00,
2013-02-12 19:02:00,45.0,25.0,29.94,NNW,336,0.0,1.0,46,0.00,,,0.00,,2013-02-13 00:02:00,
2013-02-12 19:11:00,45.0,25.0,29.94,NNW,336,0.0,1.0,46,0.00,,,0.00,,2013-02-13 00:11:00,
2013-02-12 19:21:00,44.0,25.0,29.94,NNW,341,0.0,3.0,46,0.00,,,0.00,,2013-02-13 00:21:00,
2013-02-12 19:32:00,45.0,25.0,29.93,NNW,343,1.0,3.0,45,0.00,,,0.00,,2013-02-13 00:32:00,
2013-02-12 19:42:00,45.0,25.0,29.93,NNW,343,1.0,3.0,45,0.00,,,0.00,,2013-02-13 00:42:00,
2013-02-12 19:52:00,45.0,25.0,29.93,NNW,344,0.0,3.0,45,0.00,,,0.00,,2013-02-13 00:52:00,
2013-02-12 20:01:00,43.0,25.0,29.92,North,360,1.0,3.0,48,0.00,,,0.00,,2013-02-13 01:01:00,
2013-02-12 20:11:00,43.0,25.0,29.92,North,360,1.0,3.0,48,0.00,,,0.00,,2013-02-13 01:11:00,
2013-02-12 20:21:00,42.0,25.0,29.92,NE,35,1.0,3.0,51,0.00,,,0.00,,2013-02-13 01:21:00,
2013-02-12 20:31:00,41.0,25.0,29.91,NE,35,0.0,2.0,53,0.00,,,0.00,,2013-02-13 01:31:00,
2013-02-12 20:42:00,39.0,24.0,29.90,NE,37,0.0,2.0,55,0.00,,,0.00,,2013-02-13 01:42:00,
2013-02-12 20:52:00,39.0,24.0,29.90,NE,37,0.0,2.0,55,0.00,,,0.00,,2013-02-13 01:52:00,
2013-02-12 21:01:00,38.0,24.0,29.90,NE,37,0.0,0.0,57,0.00,,,0.00,,2013-02-13 02:01:00,
2013-02-12 21:11:00,38.0,24.0,29.90,NE,37,0.0,0.0,57,0.00,,,0.00,,2013-02-13 02:11:00,
2013-02-12 21:22:00,37.0,24.0,29.91,NE,37,0.0,0.0,59,0.00,,,0.00,,2013-02-13 02:22:00,
2013-02-12 21:32:00,36.0,24.0,29.90,NE,37,0.0,0.0,61,0.00,,,0.00,,2013-02-13 02:32:00,
2013-02-12 21:42:00,36.0,24.0,29.90,NE,37,0.0,0.0,61,0.00,,,0.00,,2013-02-13 02:42:00,
2013-02-12 21:52:00,35.0,24.0,29.91,NE,37,0.0,0.0,63,0.00,,,0.00,,2013-02-13 02:52:00,
2013-02-12 22:01:00,35.0,24.0,29.91,NE,37,0.0,2.0,65,0.00,,,0.00,,2013-02-13 03:01:00,
2013-02-12 22:11:00,35.0,24.0,29.93,NE,37,0.0,1.0,64,0.00,,,0.00,,2013-02-13 03:11:00,
2013-02-12 22:21:00,35.0,24.0,29.93,NE,37,0.0,1.0,64,0.00,,,0.00,,2013-02-13 03:21:00,
2013-02-12 22:32:00,36.0,24.0,29.92,NE,37,1.0,2.0,62,0.00,,,0.00,,2013-02-13 03:32:00,
2013-02-12 22:42:00,36.0,24.0,29.92,NE,37,1.0,2.0,62,0.00,,,0.00,,2013-02-13 03:42:00,
2013-02-12 22:52:00,37.0,25.0,29.92,NE,37,1.0,3.0,61,0.00,,,0.00,,2013-02-13 03:52:00,
2013-02-12 23:01:00,37.0,24.0,29.92,NE,37,0.0,2.0,60,0.00,,,0.00,,2013-02-13 04:01:00,
2013-02-12 23:11:00,37.0,24.0,29.92,NE,37,0.0,2.0,60,0.00,,,0.00,,2013-02-13 04:11:00,
2013-02-12 23:21:00,36.0,24.0,29.93,NE,37,0.0,0.0,62,0.00,,,0.00,,2013-02-13 04:21:00,
2013-02-12 23:32:00,35.0,24.0,29.92,NE,37,0.0,1.0,63,0.00,,,0.00,,2013-02-13 04:32:00,
2013-02-12 23:41:00,35.0,24.0,29.92,NE,37,0.0,1.0,63,0.00,,,0.00,,2013-02-13 04:41:00,
2013-02-12 23:52:00,35.0,24.0,29.92,NE,37,0.0,0.0,64,0.00,,,0.00,,2013-02-13 04:52:00,